Wind_Speed
26 23 22 17 20 14 14 16 17 18 19 19 18 16 14 11 10 9 9 7 4 5 6 6 5 2 3 2 6 6 7 6 5 5 8 13 14 7 5 16 17 19 18 18 15 12 9
26 27 24 20 18 15 16 19 19 20 21 21 20 17 14 11 10 9 8 6 4 4 5 4 4 4 1 3 6 6 5 5 4 3 4 6 8 9 12 8 7 17 17 14 11 10 10
28 28 26 22 17 17 18 21 21 22 22 21 20 17 15 12 10 8 6 6 5 4 5 2 3 3 1 4 5 5 6 4 3 3 5 6 5 6 7 7 12 14 13 10 8 6 4
30 30 29 23 20 20 21 22 23 24 23 22 20 18 16 14 11 9 8 8 6 5 7 4 3 2 4 10 7 5 6 8 7 6 6 6 7 5 7 3 9 7 3 1 5 1 1
33 30 28 23 21 22 22 23 24 25 24 23 22 19 17 15 13 12 10 10 9 9 9 8 6 5 5 6 6 7 6 8 9 10 9 9 9 9 11 11 8 3 2 6 4 6 3
30 31 27 23 22 22 23 25 26 26 25 24 22 20 18 16 15 13 13 13 13 12 11 9 7 6 5 8 7 7 8 10 12 12 14 16 13 12 8 2 1 6 6 7 4 4 7
32 31 29 24 21 22 25 26 27 26 26 25 23 21 19 17 16 16 15 16 14 14 13 8 10 8 8 8 9 8 9 12 14 13 14 18 16 14 10 10 10 9 8 7 5 3 6
32 31 29 21 22 23 27 28 28 27 26 25 23 21 18 18 17 18 19 24 16 12 16 12 9 8 9 9 9 9 10 13 15 15 14 13 17 13 12 11 11 9 8 4 4 3 6
41 37 28 25 22 28 29 29 29 28 27 25 23 21 19 19 19 20 20 18 16 16 9 14 12 9 8 8 9 9 11 15 13 10 6 7 13 14 12 10 9 8 5 2 2 2 3
61 47 40 28 35 31 31 31 30 28 27 25 24 22 21 21 22 22 22 20 19 14 5 11 10 9 10 9 8 7 8 7 11 12 11 11 12 10 8 7 8 1 1 1 1 1 2
62 54 45 36 32 33 32 32 31 29 28 27 25 23 23 24 25 26 23 23 20 14 2 11 12 11 11 9 11 7 7 9 7 6 6 8 10 7 5 5 5 6 2 1 3 3 3
56 51 43 39 35 35 34 33 32 30 29 28 26 25 24 23 23 23 25 24 18 5 5 9 14 13 12 10 8 9 6 6 8 8 9 9 8 6 7 5 6 3 4 1 2 4 7
51 51 46 49 40 38 36 34 33 31 30 29 27 26 25 26 28 26 26 24 10 5 7 10 14 17 12 12 10 9 9 7 3 6 4 7 4 5 4 3 6 2 1 3 4 4 2
53 47 51 44 41 40 37 36 34 32 31 30 28 28 28 27 28 28 28 25 8 7 9 11 18 18 12 13 10 10 8 6 6 6 8 5 2 2 3 5 3 2 2 2 4 3 4
54 45 45 43 42 40 39 37 34 33 32 31 30 30 30 31 30 30 31 21 5 12 13 19 17 14 13 15 11 10 8 7 8 9 4 5 2 5 4 3 2 3 2 3 3 4 5
48 50 44 44 42 41 39 37 35 34 33 31 31 31 32 31 31 32 32 18 9 14 16 21 7 11 12 16 12 11 9 8 10 9 7 7 4 6 3 1 0 4 4 1 1 1 4
52 47 43 46 44 43 41 39 36 35 33 32 31 32 32 32 33 34 35 22 15 15 17 14 8 12 11 18 11 12 8 9 10 8 7 7 5 5 4 3 3 1 2 2 2 2 4
47 47 45 48 46 45 43 40 38 36 35 35 35 33 34 35 37 38 36 26 18 19 18 17 12 10 14 15 12 10 9 6 10 8 5 6 6 5 5 9 8 6 4 4 3 3 7
42 48 47 50 46 45 43 42 40 37 35 35 37 32 35 37 37 36 35 30 23 19 18 15 15 15 14 13 8 10 11 10 10 9 6 7 4 5 3 3 6 7 8 8 9 9 13
46 48 50 52 48 45 43 42 40 38 37 37 35 31 38 39 38 35 34 30 27 23 21 18 15 15 15 14 10 11 12 12 11 11 8 6 7 8 5 5 9 10 9 10 13 8 9
52 41 46 51 47 45 43 42 41 39 38 38 38 32 37 42 41 34 28 22 28 27 23 21 17 15 15 13 13 10 12 11 10 9 9 7 6 9 11 12 12 11 16 14 21 21 15
48 46 47 53 50 46 44 43 40 39 39 39 39 35 35 20 36 30 28 25 24 21 21 23 16 16 14 14 12 14 14 12 9 9 12 11 6 8 12 10 11 17 20 21 24 22 26
46 40 47 56 49 46 44 42 41 40 39 39 37 33 27 30 34 31 31 24 21 23 23 18 16 17 15 14 16 12 11 11 11 9 10 9 9 5 5 7 11 17 13 19 19 21 22
36 36 51 54 49 44 43 41 40 39 40 37 36 31 24 27 25 34 26 23 22 18 21 18 18 17 23 17 15 14 12 12 11 9 10 8 8 6 5 6 4 4 7 4 10 16 18
37 35 55 52 48 43 41 40 39 38 35 34 33 30 23 23 24 26 26 19 25 23 16 21 24 25 17 17 16 10 10 11 14 14 12 10 11 5 4 7 15 16 7 11 8 12 12
37 39 52 49 44 43 41 39 37 35 34 33 31 29 26 21 23 22 25 27 27 26 23 19 21 21 21 20 16 10 6 8 6 6 15 12 12 10 6 4 4 3 4 12 8 13 2
36 49 53 47 44 43 40 38 36 35 34 33 32 30 27 22 21 22 25 26 23 25 26 25 22 22 20 20 18 9 7 7 6 8 10 14 12 19 14 9 11 11 10 9 4 4 7
43 52 48 45 42 41 39 37 36 34 31 32 31 30 26 26 18 26 26 26 24 27 25 25 25 24 22 19 14 11 9 10 9 7 11 13 10 9 13 8 9 8 3 7 9 15 19
51 50 47 42 40 39 37 35 32 32 31 31 30 29 27 23 17 22 23 22 26 26 25 18 24 14 19 16 16 11 11 8 9 5 13 10 12 8 11 5 9 11 13 19 20 21 23
Wind_Direction
224 212 216 203 228 209 214 216 203 197 190 188 185 174 166 178 171 153 135 120 95 65 37 40 16 9 89 77 120 117 99 89 82 88 119 136 127 109 137 119 122 115 125 115 130 131 141
219 215 209 199 206 205 209 215 204 197 191 191 191 179 172 183 185 167 146 126 97 73 55 30 12 338 20 132 120 113 97 99 98 124 127 132 146 146 128 128 138 123 120 110 101 101 99
219 217 212 202 207 208 209 212 204 198 193 195 194 185 177 186 197 184 164 138 121 121 92 30 4 336 250 135 130 117 115 98 102 129 150 154 158 159 146 142 123 113 114 117 128 137 198
222 218 213 202 204 211 208 209 203 199 195 199 196 190 184 188 201 201 178 148 141 129 101 93 97 112 141 131 134 130 107 116 117 118 124 129 143 161 149 156 133 141 145 285 15 79 287
220 214 207 198 205 208 207 207 203 200 197 201 198 194 193 191 200 199 178 153 139 122 113 119 117 126 137 132 123 120 116 106 99 105 105 117 127 126 114 119 108 173 142 143 65 54 45
224 214 208 199 205 204 205 206 203 200 198 202 200 196 197 195 198 197 181 153 143 131 128 133 133 123 137 127 119 114 109 109 105 100 109 98 83 93 109 176 354 143 124 105 116 43 64
217 209 211 195 208 207 205 205 202 200 199 203 201 198 196 194 194 191 176 145 137 139 147 140 143 142 140 129 122 111 102 109 105 104 107 100 122 98 88 92 95 113 124 109 67 83 105
208 208 208 197 211 214 206 203 201 198 198 201 199 196 194 192 190 184 179 146 174 151 144 137 146 147 141 128 127 115 115 108 106 108 96 100 94 106 111 104 95 100 117 118 64 61 110
208 214 202 205 211 216 205 201 200 197 196 197 196 193 192 194 188 179 173 154 150 167 146 149 151 154 148 143 127 113 102 105 98 125 134 156 117 115 111 102 89 97 102 44 142 343 99
216 220 213 203 207 217 204 200 198 196 193 194 195 192 189 189 184 175 173 158 149 170 143 160 153 153 146 137 128 129 123 126 121 118 107 89 103 94 91 112 115 358 334 205 242 138 269
213 220 206 202 206 210 202 198 197 193 192 193 194 191 190 192 183 176 171 156 162 167 197 180 179 165 165 161 149 140 142 126 125 133 113 116 105 93 104 95 109 218 319 190 202 239 218
204 211 210 210 209 206 199 197 195 192 192 193 193 190 189 186 188 172 169 156 171 192 216 176 171 159 160 170 167 151 158 142 120 113 116 125 122 110 122 90 67 61 65 98 183 221 242
216 212 212 217 203 201 196 194 194 190 190 193 191 189 188 186 178 175 168 161 170 225 178 185 172 158 155 161 163 153 156 158 151 123 115 111 101 103 83 69 43 60 151 222 213 207 288
206 214 216 197 195 196 193 192 191 187 189 192 190 187 183 181 179 175 172 166 197 201 161 166 162 156 152 158 169 165 154 173 176 145 145 167 186 145 102 135 164 118 78 212 254 293 335
206 214 200 184 192 194 191 191 188 186 189 190 188 184 181 180 180 180 178 184 193 157 196 156 156 160 165 182 174 171 166 186 192 183 168 152 166 181 173 143 140 268 172 189 298 291 270
208 198 198 189 191 192 189 188 186 186 188 189 188 184 182 181 182 184 187 192 194 171 168 162 171 181 183 177 171 169 178 205 197 184 183 180 134 192 203 212 35 160 189 199 310 308 270
202 193 198 186 189 191 187 185 185 187 187 188 185 184 182 179 183 190 196 198 194 177 162 177 195 173 182 174 172 167 182 198 197 185 182 180 190 190 204 201 207 249 184 153 175 230 283
200 204 203 188 189 191 186 183 183 186 187 186 187 185 182 182 185 197 198 199 194 191 191 192 175 175 173 166 167 173 178 201 198 180 189 200 169 146 183 237 225 196 200 200 211 231 239
206 200 201 187 188 189 186 182 183 186 188 188 189 185 183 188 192 197 200 203 205 197 196 198 195 189 179 167 159 174 185 201 195 201 191 179 174 151 218 304 230 214 227 217 232 235 237
196 198 198 182 189 191 187 183 180 185 188 192 188 184 185 192 199 205 201 202 205 198 202 200 199 194 184 181 187 183 209 205 207 216 215 221 206 213 261 229 262 266 270 254 237 220 253
194 203 194 181 189 190 186 184 181 184 189 193 191 193 196 202 201 199 200 206 207 206 208 206 207 201 190 190 194 182 204 208 214 227 227 231 240 243 254 265 261 266 279 255 250 248 239
195 201 192 181 190 188 186 185 183 185 191 193 194 198 197 203 201 199 197 201 202 205 213 204 204 196 187 206 208 206 220 219 232 229 233 240 259 262 282 276 266 269 260 252 252 253 256
191 204 199 180 188 187 186 187 186 186 190 195 201 203 200 201 197 198 204 199 190 204 205 203 193 183 187 186 203 201 202 209 225 234 219 231 237 262 259 279 300 287 280 246 249 251 255
190 190 190 179 186 187 185 187 188 188 194 195 199 201 201 199 199 205 205 198 190 208 211 201 186 190 207 212 211 214 218 220 223 208 208 204 229 230 265 297 263 266 277 223 256 254 256
192 193 177 180 183 185 185 188 189 191 194 196 200 200 200 203 203 201 198 188 190 204 196 194 190 206 201 200 204 204 211 225 225 232 218 216 208 236 237 245 280 297 261 255 270 279 276
192 190 175 181 183 182 189 188 188 190 193 195 198 200 200 199 196 202 188 200 202 200 200 199 199 198 195 203 199 201 197 203 192 202 217 210 209 223 223 247 259 243 255 271 291 294 208
191 183 175 178 183 186 187 187 187 190 193 193 195 198 199 199 206 180 193 198 198 205 204 200 197 197 203 205 203 198 208 194 208 204 201 189 213 220 231 249 264 272 261 287 261 285 289
190 171 174 179 184 185 185 185 187 189 191 195 197 197 198 198 202 202 195 198 201 208 210 205 197 203 202 201 211 216 202 218 211 213 196 203 192 206 214 241 263 231 272 257 287 293 293
174 172 176 178 180 183 183 184 183 193 193 195 196 196 197 196 208 200 207 209 205 201 203 203 204 206 206 205 212 210 214 212 200 222 211 215 214 225 217 224 263 273 277 288 294 292 295
Height
3115 3116 3121 3122 3127 3128 3132 3135 3137 3140 3142 3145 3148 3149 3151 3156 3158 3158 3158 3159 3162 3163 3164 3165 3165 3166 3166 3168 3168 3168 3167 3168 3168 3169 3170 3171 3173 3174 3172 3172 3176 3178 3179 3183 3183 3186 3188
3108 3112 3116 3119 3122 3124 3128 3133 3135 3137 3140 3144 3147 3148 3150 3155 3157 3157 3157 3158 3161 3162 3163 3166 3167 3166 3167 3170 3169 3169 3168 3169 3169 3170 3171 3172 3172 3173 3174 3174 3178 3181 3181 3185 3186 3189 3189
3103 3108 3112 3115 3118 3120 3125 3130 3133 3135 3138 3142 3145 3147 3149 3154 3157 3158 3158 3158 3160 3161 3162 3165 3167 3167 3168 3169 3170 3170 3169 3169 3170 3170 3171 3172 3173 3175 3176 3177 3179 3181 3183 3185 3188 3191 3191
3100 3103 3107 3109 3113 3117 3122 3126 3130 3133 3136 3140 3144 3146 3148 3152 3155 3157 3157 3157 3158 3161 3161 3165 3167 3168 3168 3168 3169 3169 3170 3170 3171 3171 3171 3172 3174 3176 3178 3180 3182 3186 3187 3190 3188 3188 3190
3096 3099 3103 3105 3110 3114 3118 3123 3127 3130 3134 3138 3141 3144 3147 3150 3153 3156 3157 3156 3158 3161 3162 3164 3167 3169 3170 3170 3171 3170 3171 3170 3171 3171 3172 3173 3175 3177 3179 3184 3187 3187 3188 3190 3190 3189 3190
3089 3093 3097 3101 3107 3110 3114 3120 3124 3127 3132 3136 3139 3142 3146 3148 3152 3155 3156 3156 3157 3160 3163 3166 3167 3171 3171 3171 3171 3171 3171 3172 3172 3174 3176 3177 3180 3183 3186 3188 3186 3189 3189 3190 3192 3191 3193
3083 3089 3094 3096 3103 3105 3111 3116 3121 3125 3129 3134 3137 3140 3144 3147 3150 3154 3156 3156 3161 3163 3163 3165 3168 3167 3168 3171 3172 3173 3173 3174 3175 3177 3177 3180 3183 3184 3184 3185 3186 3189 3191 3192 3191 3189 3195
3077 3084 3089 3091 3098 3101 3107 3112 3117 3122 3126 3131 3136 3139 3143 3146 3149 3152 3155 3152 3158 3163 3162 3165 3167 3168 3168 3170 3174 3175 3175 3176 3177 3179 3181 3182 3180 3183 3184 3185 3188 3191 3193 3193 3192 3189 3193
3069 3077 3081 3088 3093 3099 3103 3108 3114 3118 3122 3127 3133 3136 3140 3145 3148 3151 3154 3154 3157 3161 3163 3164 3166 3168 3170 3172 3173 3174 3175 3176 3178 3179 3180 3181 3184 3184 3186 3187 3188 3187 3190 3190 3192 3189 3191
3061 3069 3077 3083 3089 3095 3099 3105 3110 3115 3119 3125 3130 3134 3138 3142 3149 3149 3153 3155 3157 3162 3166 3166 3167 3168 3171 3172 3174 3175 3176 3178 3178 3180 3181 3183 3184 3186 3186 3186 3187 3191 3188 3187 3189 3192 3190
3052 3064 3070 3077 3084 3091 3095 3101 3107 3111 3116 3122 3127 3131 3136 3141 3144 3147 3153 3153 3158 3161 3164 3165 3165 3166 3169 3173 3176 3176 3176 3177 3178 3180 3184 3186 3186 3188 3188 3187 3187 3189 3187 3188 3190 3192 3192
3045 3055 3063 3072 3080 3086 3091 3097 3103 3108 3113 3120 3124 3128 3133 3139 3143 3146 3151 3153 3160 3164 3160 3161 3161 3163 3169 3171 3174 3176 3177 3179 3180 3180 3181 3183 3185 3186 3187 3188 3187 3187 3188 3189 3191 3192 3189
3038 3047 3055 3065 3074 3081 3087 3093 3100 3105 3111 3118 3122 3126 3131 3136 3141 3146 3150 3154 3161 3159 3160 3161 3161 3162 3166 3170 3174 3175 3178 3179 3181 3182 3184 3185 3186 3187 3187 3190 3190 3190 3191 3190 3189 3188 3183
3031 3041 3050 3059 3067 3076 3082 3088 3095 3101 3108 3115 3120 3123 3127 3134 3140 3145 3149 3155 3154 3152 3157 3157 3160 3162 3165 3168 3172 3175 3177 3178 3179 3181 3184 3186 3189 3187 3188 3188 3190 3189 3191 3190 3188 3177 3179
3025 3035 3044 3053 3062 3071 3077 3084 3091 3098 3106 3112 3117 3120 3125 3131 3137 3144 3148 3149 3148 3149 3154 3157 3162 3164 3163 3164 3169 3173 3177 3177 3177 3179 3184 3185 3185 3185 3186 3187 3188 3188 3190 3189 3189 3187 3185
3019 3029 3038 3048 3057 3066 3072 3080 3088 3095 3102 3109 3114 3118 3123 3129 3135 3141 3145 3144 3146 3146 3151 3157 3160 3162 3163 3163 3167 3171 3173 3174 3175 3177 3179 3181 3184 3184 3184 3185 3186 3187 3187 3190 3188 3188 3185
3013 3023 3033 3043 3052 3061 3067 3075 3084 3092 3099 3105 3111 3116 3121 3127 3133 3138 3138 3142 3144 3146 3150 3157 3158 3158 3162 3161 3166 3170 3171 3173 3174 3176 3177 3179 3181 3186 3184 3185 3186 3186 3186 3186 3188 3189 3185
3009 3018 3027 3039 3047 3056 3062 3070 3080 3089 3095 3102 3106 3112 3118 3123 3129 3131 3135 3138 3141 3144 3146 3151 3154 3156 3160 3161 3165 3166 3168 3170 3172 3175 3176 3176 3178 3183 3185 3181 3181 3182 3184 3185 3186 3187 3185
3003 3012 3021 3034 3043 3052 3059 3066 3075 3085 3092 3099 3101 3109 3114 3118 3121 3127 3130 3135 3139 3143 3145 3150 3151 3154 3157 3162 3164 3165 3165 3167 3170 3173 3174 3175 3177 3181 3181 3181 3178 3178 3178 3180 3181 3181 3178
2997 3007 3016 3028 3039 3048 3056 3063 3070 3080 3088 3094 3101 3105 3110 3114 3118 3124 3129 3132 3136 3139 3141 3147 3149 3152 3156 3159 3160 3161 3162 3165 3167 3169 3171 3172 3174 3175 3175 3173 3174 3173 3174 3174 3175 3176 3174
2994 3003 3012 3024 3036 3044 3052 3060 3066 3075 3084 3091 3095 3099 3103 3105 3113 3120 3127 3130 3131 3135 3139 3144 3147 3150 3153 3156 3158 3159 3161 3163 3166 3167 3169 3172 3171 3172 3172 3170 3171 3171 3169 3168 3166 3168 3168
2990 3000 3009 3021 3032 3039 3048 3056 3063 3071 3080 3087 3092 3097 3100 3103 3112 3118 3122 3126 3129 3133 3137 3140 3146 3148 3151 3153 3156 3157 3157 3160 3163 3165 3166 3168 3169 3169 3168 3167 3167 3167 3165 3165 3164 3162 3160
2987 2995 3004 3016 3027 3036 3045 3054 3061 3068 3077 3081 3090 3095 3100 3104 3108 3114 3117 3124 3128 3130 3133 3137 3144 3146 3147 3150 3151 3154 3156 3157 3159 3161 3163 3165 3166 3167 3167 3164 3163 3161 3155 3156 3158 3159 3159
2983 2991 2999 3014 3025 3033 3042 3051 3059 3067 3073 3080 3087 3093 3098 3101 3106 3110 3116 3122 3127 3128 3132 3134 3141 3144 3143 3147 3149 3152 3154 3155 3156 3159 3161 3162 3162 3165 3165 3163 3162 3155 3153 3154 3154 3153 3153
2980 2988 2998 3011 3022 3031 3040 3049 3057 3064 3072 3079 3085 3091 3095 3099 3105 3109 3113 3119 3120 3123 3130 3130 3134 3137 3142 3144 3147 3149 3151 3153 3153 3154 3157 3160 3161 3162 3163 3161 3155 3151 3151 3152 3151 3151 3150
2978 2986 2997 3010 3020 3029 3039 3047 3055 3062 3069 3076 3083 3088 3093 3098 3102 3107 3112 3113 3116 3119 3125 3129 3132 3136 3139 3140 3145 3145 3148 3149 3149 3150 3150 3155 3158 3161 3160 3160 3154 3149 3147 3146 3147 3146 3144
2975 2984 2996 3008 3019 3028 3036 3044 3052 3060 3067 3074 3079 3084 3091 3096 3099 3104 3108 3111 3114 3117 3120 3126 3129 3132 3136 3138 3141 3143 3146 3147 3146 3145 3146 3151 3154 3154 3156 3155 3150 3148 3145 3142 3146 3148 3141
2972 2984 2996 3007 3016 3025 3034 3043 3050 3058 3065 3071 3077 3082 3089 3093 3096 3099 3103 3107 3111 3114 3118 3122 3128 3129 3131 3135 3138 3139 3141 3140 3143 3144 3143 3145 3148 3149 3151 3151 3147 3142 3142 3144 3142 3138 3136
2972 2985 2996 3006 3015 3025 3033 3042 3049 3057 3064 3070 3076 3081 3087 3092 3096 3098 3101 3105 3107 3110 3115 3121 3123 3125 3127 3131 3133 3135 3135 3136 3138 3141 3141 3143 3142 3145 3144 3143 3140 3139 3138 3137 3134 3131 3128